User: anonymous   Login
Location: Unspecified
(0.0000°N, 0.0000°E)
Time: 03:15:09
(UTC+00:00)
Language:

RS-44 - Orbit

View from above orbital plane
View from above orbital plane
View from above satellite
View from above satellite

Ground track
Ground track

The orbit data is extracted from the following two-line orbital elements,

1 44909U 19096E   21055.65354162  .00000008  00000-0 -99692-5 0  9995
2 44909  82.5240 187.7467 0217229 357.1358   2.8482 12.79708572 54410
Epoch (UTC): 24 February 2021 15:41:05
Eccentricity: 0.0217229
inclination: 82.5240°
perigee height: 1175 km
apogee height: 1510 km
right ascension of ascending node: 187.7467°
argument of perigee: 357.1358°
revolutions per day: 12.79708572
mean anomaly at epoch: 2.8482°
orbit number at epoch: 5441

The dashed part of the orbit path shows where the satellite is in the earth's shadow,  

DLR